Weather History for Seward, AK

Change the Weather History Date:

Friday, December 14, 2012

  Actual Average Record
Temperature  
Mean Temperature 23 °F -  
Max Temperature 27 °F 31 °F 46 °F (1958)
Min Temperature 19 °F 23 °F -8 °F (1964)
Degree Days  
Heating Degree Days 42    
Moisture  
Dew Point 17 °F    
Average Humidity 75    
Maximum Humidity 85    
Minimum Humidity 63    
Precipitation  
Precipitation 0.00 in - - ()
Sea Level Pressure  
Sea Level Pressure 29.15 in    
Wind  
Wind Speed 14 mph (North)    
Max Wind Speed 24 mph    
Max Gust Speed 34 mph    
Visibility 10 miles    
Events      
Averages and records for this station are not official NWS values.
T = Trace of Precipitation, MM = Missing Value Source: NWS Daily Summary

Daily Weather History Graph

Daily Weather History Graph

Search for Another Location

Airport:

Trip Planner

Search our weather history database for the weather conditions in past years. The results will help you decide how hot, cold, wet, or windy it might be!

Date:

Astronomy

Dec. 14, 2012 Rise Set
Actual Time 9:55 AM AKST 3:49 PM AKST
Civil Twilight 8:57 AM AKST 4:47 PM AKST
Nautical Twilight 8:01 AM AKST 5:44 PM AKST
Astronomical Twilight 7:09 AM AKST 6:35 PM AKST
Moon 10:48 AM AKST (12/14) 6:17 PM AKST (12/14)
Length of Visible Light 7h 49m
Length of Day
5h 53m
Waxing Crescent, 3% of the Moon is Illuminated
Dec 14
Waxing Crescent
Dec 19
First Quarter
Dec 28
Full
Jan 4
Last Quarter
Jan 11
New

Hourly Weather History & Observations

Time (AKST) Temp. Windchill Dew Point Humidity Pressure Visibility Wind Dir Wind Speed Gust Speed Precip Events Conditions
12:53 AM 23.0 °F 13.1 °F 19.0 °F 85% 29.28 in 10.0 mi North 9.2 mph - N/A   Clear
1:53 AM 19.9 °F 13.4 °F 16.0 °F 85% 29.27 in 10.0 mi NW 4.6 mph - N/A   Clear
3:53 AM 19.9 °F 8.6 °F 16.0 °F 85% 29.25 in 10.0 mi North 10.4 mph - N/A   Clear
4:53 AM 23.0 °F 12.4 °F 18.0 °F 81% 29.24 in 10.0 mi North 10.4 mph - N/A   Clear
5:53 AM 23.0 °F 10.6 °F 17.1 °F 78% 29.22 in 10.0 mi North 13.8 mph - N/A   Clear
6:53 AM 21.9 °F 8.7 °F 17.1 °F 82% 29.20 in 10.0 mi NNE 15.0 mph - N/A   Clear
7:53 AM 21.9 °F 8.2 °F 16.0 °F 78% 29.19 in 10.0 mi North 16.1 mph 20.7 mph N/A   Clear
8:53 AM 21.9 °F 9.8 °F 16.0 °F 78% 29.19 in 10.0 mi North 12.7 mph 24.2 mph N/A   Clear
9:53 AM 19.9 °F 6.2 °F 15.1 °F 81% 29.18 in 10.0 mi NNE 15.0 mph 20.7 mph N/A   Clear
10:53 AM 19.9 °F 6.2 °F 15.1 °F 81% 29.18 in 10.0 mi NNE 15.0 mph 21.9 mph N/A   Clear
11:53 AM 23.0 °F 10.1 °F 16.0 °F 74% 29.16 in 10.0 mi North 15.0 mph - N/A   Clear
1:53 PM 26.1 °F 14.0 °F 18.0 °F 71% 29.13 in 10.0 mi NNE 15.0 mph 23.0 mph N/A   Clear
2:53 PM 25.0 °F 11.7 °F 18.0 °F 75% 29.11 in 10.0 mi NNE 17.3 mph 25.3 mph N/A   Clear
3:53 PM 26.1 °F 13.1 °F 19.0 °F 75% 29.10 in 10.0 mi NNE 17.3 mph 26.5 mph N/A   Clear
4:53 PM 26.1 °F 12.7 °F 19.0 °F 75% 29.10 in 10.0 mi NNE 18.4 mph 28.8 mph N/A   Clear
5:53 PM 26.1 °F 11.3 °F 18.0 °F 71% 29.08 in 10.0 mi North 23.0 mph 29.9 mph N/A   Clear
6:53 PM 27.0 °F 13.2 °F 17.1 °F 66% 29.08 in 10.0 mi NNE 20.7 mph 34.5 mph N/A   Clear
7:53 PM 26.1 °F 11.6 °F 17.1 °F 69% 29.07 in 10.0 mi North 21.9 mph 28.8 mph N/A   Clear
8:53 PM 26.1 °F 12.3 °F 17.1 °F 69% 29.05 in 10.0 mi North 19.6 mph 25.3 mph N/A   Clear
9:53 PM 26.1 °F 12.0 °F 16.0 °F 66% 29.05 in 10.0 mi North 20.7 mph 31.1 mph N/A   Clear
10:53 PM 26.1 °F 11.0 °F 16.0 °F 66% 29.03 in 10.0 mi NNE 24.2 mph 34.5 mph N/A   Clear
11:53 PM 26.1 °F 13.1 °F 15.1 °F 63% 29.03 in 10.0 mi North 17.3 mph 33.4 mph N/A   Clear